Regional Weather Roundup
Issued by NWS

Home | Current Version | Previous Version | Graphics & Text | Print | Product List | Glossary On
Versions: 1 2 3 4 5 6 7 8 9 10 11 12 13 14 15 16 17 18 19 20 21 22 23 24 25 26 27 28 29 30 31 32 33 34 35 36 37 38 39 40 41 42 43 44 45 46 47 48 49 50
000
ASUS43 KFSD 310402
RWRSD

WEATHER ROUNDUP FOR SOUTH DAKOTA
NATIONAL WEATHER SERVICE SIOUX FALLS SD
1000 PM CST FRI JAN 30 2015

NOTE: "FAIR" INDICATES FEW OR NO CLOUDS BELOW 12,000 FEET WITH NO
SIGNIFICANT WEATHER AND/OR OBSTRUCTIONS TO VISIBILITY.


SDZ001>005-009-010-012>017-310500-
NORTHWEST AND NORTH CENTRAL SOUTH DAKOTA

CITY           SKY/WX    TMP DP  RH WIND       PRES   REMARKS
BUFFALO          N/A     30  23  75 E5        30.07F WCI  25
FAITH            N/A     32  22  66 N7        30.13F WCI  26
MOBRIDGE       CLEAR     26  22  84 N6        30.12S WCI  19
$$

SDZ012>016-024>037-041>051-057-063-072>074-310500-
SOUTHWEST AND SOUTH CENTRAL SOUTH DAKOTA

CITY           SKY/WX    TMP DP  RH WIND       PRES   REMARKS
RAPID CTY ARPT CLOUDY    29  22  75 N9        30.12F WCI  20
PIERRE         PTCLDY    26  20  77 CALM      30.13S
CUSTER         CLOUDY    31  14  49 NE3       30.08F
ELLSWORTH AFB  MOCLDY    37  22  54 N8        30.11F
PHILIP         MOCLDY    28  22  78 CALM      30.13F
PINE RIDGE     CLOUDY    27  22  81 E5        30.11F WCI  22
WINNER         FAIR      34  24  67 W3        30.13S
$$

SDZ004>011-016>023-039-040-310500-
NORTHEAST SOUTH DAKOTA

CITY           SKY/WX    TMP DP  RH WIND       PRES   REMARKS
ABERDEEN       CLEAR     28  24  85 N8        30.15F WCI  20
WATERTOWN      CLEAR     25  23  92 CALM      30.11F
SISSETON         N/A     31  28  89 NW9       30.13F WCI  23
$$

SDZ017-020-022-023-036>040-048>070-310500-
SOUTHEAST SOUTH DAKOTA

CITY           SKY/WX    TMP DP  RH WIND       PRES   REMARKS
SIOUX FALLS    CLEAR     33  27  78 SW7       30.15F WCI  27
HURON          CLEAR     25  23  92 CALM      30.14S
MITCHELL       CLEAR     29  25  85 NW7       30.14S WCI  22
YANKTON        PTCLDY    34  27  75 SE5       30.17F WCI  30
$$

ABBREVIATIONS USED IN REMARKS
   TC - TEMPERATURE IN CELSIUS
  WCI - WIND CHILL INDEX
   HX - HEAT INDEX
  VSB - VISIBILITY




USA.gov is the U.S. government's official web portal to all federal, state and local government web resources and services.